Overview Statistics Trail Chart Weather Telemetry Raw packets
 

This is the latest recevied weather packets stored in our database for station/object KB7K. If no packets are shown the sender has not sent any weather packets the latest 10 day(s).

<< 27 28 29 30 31 >>
Time Temp. Humidity Pressure Rain* Wind** Luminosity Snow
1787779966 34.44° C 17% 983.3 hPa 0 mm - - -
1787779814 35° C 17% 983.3 hPa 0 mm - - -
1787778811 35° C 18% 983.2 hPa 0 mm - - -
1787777808 33.89° C 19% 983.5 hPa 0 mm - - -
1787776806 33.33° C 20% 983.6 hPa 0 mm - - -
1787775802 32.22° C 21% 983.7 hPa 0 mm - - -
1787774800 30.56° C 23% 983.9 hPa 0 mm - - -
1787773796 28.89° C 23% 984.2 hPa 0 mm - - -
1787771792 27.78° C 23% 985 hPa 0 mm - - -
1787770788 28.33° C 22% 984.8 hPa 0 mm - - -
1787769786 28.33° C 22% 984.9 hPa 0 mm - - -
1787769562 28.89° C 22% 984.9 hPa 0 mm - - -
1787769342 28.89° C 22% 985.2 hPa 0 mm - - -
1787768174 29.44° C 22% 986 hPa 0 mm - - -
1787767171 29.44° C 23% 985.9 hPa 0 mm - - -
1787764163 26.67° C 25% 986 hPa 0 mm - - -
1787763158 25.56° C 26% 986.3 hPa 0 mm - - -
1787762155 24.44° C 27% 986.3 hPa 0 mm - - -
1787761152 23.33° C 28% 986.4 hPa 0 mm - - -
1787760149 22.22° C 28% 986.5 hPa 0 mm - - -
1787759146 21.11° C 29% 986.5 hPa 0 mm - - -
1787758143 20.56° C 29% 986.5 hPa 0 mm - - -
1787757140 20.56° C 29% 986.7 hPa 0 mm - - -
1787756137 20° C 29% 986.7 hPa 0 mm - - -
1787755134 20° C 29% 986.6 hPa 0 mm - - -

* Rain since midnight (hover to see other rain measurements)
** Current wind speed in m/s (hover to see current wind gust speed)